Time,TemperatureF,DewpointF,PressureIn,WindDirection,WindDirectionDegrees,WindSpeedMPH,WindSpeedGustMPH,Humidity,HourlyPrecipIn,Conditions,Clouds,dailyrainin,SoftwareType,DateUTC
2013-10-11 00:23:00,52.0,47.0,-100.00,ESE,105,0.0,0.0,84,-99.99,,,-99.99,,2013-10-11 05:23:00,
2013-10-11 00:34:00,52.0,47.0,-100.00,ESE,105,0.0,0.0,84,-99.99,,,-99.99,,2013-10-11 05:34:00,
2013-10-11 00:43:00,52.0,47.0,-100.00,ESE,105,0.0,0.0,84,-99.99,,,-99.99,,2013-10-11 05:43:00,
2013-10-11 00:52:00,52.0,47.0,-100.00,ESE,105,0.0,0.0,84,-99.99,,,-99.99,,2013-10-11 05:52:00,
2013-10-11 01:22:00,51.0,48.0,-100.00,ESE,105,0.0,0.0,90,-99.99,,,-99.99,,2013-10-11 06:22:00,
2013-10-11 01:32:00,51.0,48.0,-100.00,ESE,105,0.0,0.0,90,-99.99,,,-99.99,,2013-10-11 06:32:00,
2013-10-11 01:43:00,51.0,48.0,-100.00,ESE,105,0.0,0.0,90,-99.99,,,-99.99,,2013-10-11 06:43:00,
2013-10-11 01:52:00,51.0,48.0,-100.00,ESE,105,0.0,0.0,90,-99.99,,,-99.99,,2013-10-11 06:52:00,
2013-10-11 02:22:00,51.0,49.0,-100.00,ESE,105,0.0,0.0,93,-99.99,,,-99.99,,2013-10-11 07:22:00,
2013-10-11 02:32:00,51.0,49.0,-100.00,ESE,105,0.0,0.0,93,-99.99,,,-99.99,,2013-10-11 07:32:00,
2013-10-11 02:42:00,51.0,49.0,-100.00,ESE,105,0.0,0.0,93,-99.99,,,-99.99,,2013-10-11 07:42:00,
2013-10-11 02:52:00,51.0,49.0,-100.00,ESE,105,0.0,0.0,93,-99.99,,,-99.99,,2013-10-11 07:52:00,
2013-10-11 03:22:00,50.0,49.0,-100.00,East,100,0.0,0.0,94,-99.99,,,-99.99,,2013-10-11 08:22:00,
2013-10-11 03:32:00,50.0,49.0,-100.00,East,100,0.0,0.0,94,-99.99,,,-99.99,,2013-10-11 08:32:00,
2013-10-11 03:42:00,50.0,49.0,-100.00,East,100,0.0,0.0,94,-99.99,,,-99.99,,2013-10-11 08:42:00,
2013-10-11 03:52:00,50.0,49.0,-100.00,East,100,0.0,0.0,94,-99.99,,,-99.99,,2013-10-11 08:52:00,
2013-10-11 03:53:00,50.0,49.0,-100.00,ESE,120,0.0,0.0,95,-99.99,,,-99.99,,2013-10-11 08:53:00,
2013-10-11 04:22:00,50.0,49.0,-100.00,ESE,120,0.0,0.0,95,-99.99,,,-99.99,,2013-10-11 09:22:00,
2013-10-11 04:33:00,50.0,49.0,-100.00,ESE,120,0.0,0.0,95,-99.99,,,-99.99,,2013-10-11 09:33:00,
2013-10-11 04:43:00,50.0,49.0,-100.00,ESE,120,0.0,0.0,95,-99.99,,,-99.99,,2013-10-11 09:43:00,
2013-10-11 04:53:00,50.0,49.0,-100.00,ESE,105,0.0,0.0,96,-99.99,,,-99.99,,2013-10-11 09:53:00,
2013-10-11 05:23:00,50.0,49.0,-100.00,ESE,105,0.0,0.0,96,-99.99,,,-99.99,,2013-10-11 10:23:00,
2013-10-11 05:32:00,50.0,49.0,-100.00,ESE,105,0.0,0.0,96,-99.99,,,-99.99,,2013-10-11 10:32:00,
2013-10-11 05:42:00,50.0,49.0,-100.00,ESE,105,0.0,0.0,96,-99.99,,,-99.99,,2013-10-11 10:42:00,
2013-10-11 06:22:00,50.0,49.0,-100.00,ESE,105,0.0,0.0,96,-99.99,,,-99.99,,2013-10-11 11:22:00,
2013-10-11 06:33:00,50.0,49.0,-100.00,ESE,105,0.0,0.0,96,-99.99,,,-99.99,,2013-10-11 11:33:00,
2013-10-11 06:42:00,50.0,49.0,-100.00,ESE,105,0.0,0.0,96,-99.99,,,-99.99,,2013-10-11 11:42:00,
2013-10-11 06:52:00,50.0,49.0,-100.00,ESE,105,0.0,0.0,96,-99.99,,,-99.99,,2013-10-11 11:52:00,
2013-10-11 07:22:00,49.0,48.0,-100.00,ESE,105,0.0,0.0,97,-99.99,,,-99.99,,2013-10-11 12:22:00,
2013-10-11 07:33:00,49.0,48.0,-100.00,ESE,105,0.0,0.0,97,-99.99,,,-99.99,,2013-10-11 12:33:00,
2013-10-11 07:42:00,49.0,48.0,-100.00,ESE,105,0.0,0.0,97,-99.99,,,-99.99,,2013-10-11 12:42:00,
2013-10-11 07:52:00,49.0,48.0,-100.00,ESE,105,0.0,0.0,97,-99.99,,,-99.99,,2013-10-11 12:52:00,
2013-10-11 08:21:00,50.0,49.0,-100.00,East,100,0.0,0.0,97,-99.99,,,-99.99,,2013-10-11 13:21:00,
2013-10-11 08:32:00,50.0,49.0,-100.00,East,100,0.0,0.0,97,-99.99,,,-99.99,,2013-10-11 13:32:00,
2013-10-11 08:42:00,50.0,49.0,-100.00,East,100,0.0,0.0,97,-99.99,,,-99.99,,2013-10-11 13:42:00,
2013-10-11 08:52:00,50.0,49.0,-100.00,East,100,0.0,0.0,97,-99.99,,,-99.99,,2013-10-11 13:52:00,
2013-10-11 09:22:00,53.0,52.0,-100.00,ESE,120,0.0,0.0,96,-99.99,,,-99.99,,2013-10-11 14:22:00,
2013-10-11 09:32:00,53.0,52.0,-100.00,ESE,120,0.0,0.0,96,-99.99,,,-99.99,,2013-10-11 14:32:00,
2013-10-11 09:42:00,53.0,52.0,-100.00,ESE,120,0.0,0.0,96,-99.99,,,-99.99,,2013-10-11 14:42:00,
2013-10-11 09:52:00,53.0,52.0,-100.00,ESE,120,0.0,0.0,96,-99.99,,,-99.99,,2013-10-11 14:52:00,
2013-10-11 09:53:00,58.0,53.0,-100.00,SE,125,0.0,0.0,85,-99.99,,,-99.99,,2013-10-11 14:53:00,
2013-10-11 10:22:00,58.0,53.0,-100.00,SE,125,0.0,0.0,85,-99.99,,,-99.99,,2013-10-11 15:22:00,
2013-10-11 10:33:00,58.0,53.0,-100.00,SE,125,0.0,0.0,85,-99.99,,,-99.99,,2013-10-11 15:33:00,
2013-10-11 10:44:00,58.0,53.0,-100.00,SE,125,0.0,0.0,85,-99.99,,,-99.99,,2013-10-11 15:44:00,
2013-10-11 10:53:00,63.0,54.0,-100.00,SE,125,0.0,0.0,73,-99.99,,,-99.99,,2013-10-11 15:53:00,
2013-10-11 11:22:00,63.0,54.0,-100.00,SE,125,0.0,0.0,73,-99.99,,,-99.99,,2013-10-11 16:22:00,
2013-10-11 11:32:00,63.0,54.0,-100.00,SE,125,0.0,0.0,73,-99.99,,,-99.99,,2013-10-11 16:32:00,
2013-10-11 11:43:00,63.0,54.0,-100.00,SE,125,0.0,0.0,73,-99.99,,,-99.99,,2013-10-11 16:43:00,
2013-10-11 11:53:00,67.0,55.0,-100.00,ESE,115,0.0,0.0,65,-99.99,,,-99.99,,2013-10-11 16:53:00,
2013-10-11 12:22:00,67.0,55.0,-100.00,ESE,115,0.0,0.0,65,-99.99,,,-99.99,,2013-10-11 17:22:00,
2013-10-11 12:33:00,67.0,55.0,-100.00,ESE,115,0.0,0.0,65,-99.99,,,-99.99,,2013-10-11 17:33:00,
2013-10-11 12:43:00,67.0,55.0,-100.00,ESE,115,0.0,0.0,65,-99.99,,,-99.99,,2013-10-11 17:43:00,
2013-10-11 13:22:00,69.0,54.0,-100.00,SE,145,0.0,0.0,59,-99.99,,,-99.99,,2013-10-11 18:22:00,
2013-10-11 13:32:00,69.0,54.0,-100.00,SE,145,0.0,0.0,59,-99.99,,,-99.99,,2013-10-11 18:32:00,
2013-10-11 13:43:00,69.0,54.0,-100.00,SE,145,0.0,0.0,59,-99.99,,,-99.99,,2013-10-11 18:43:00,
2013-10-11 13:52:00,69.0,54.0,-100.00,SE,145,0.0,0.0,59,-99.99,,,-99.99,,2013-10-11 18:52:00,
2013-10-11 14:22:00,70.0,54.0,-100.00,SSE,150,0.0,0.0,56,-99.99,,,-99.99,,2013-10-11 19:22:00,
2013-10-11 14:32:00,70.0,54.0,-100.00,SSE,150,0.0,0.0,56,-99.99,,,-99.99,,2013-10-11 19:32:00,
2013-10-11 14:42:00,70.0,54.0,-100.00,SSE,150,0.0,0.0,56,-99.99,,,-99.99,,2013-10-11 19:42:00,
2013-10-11 14:52:00,70.0,54.0,-100.00,SSE,150,0.0,0.0,56,-99.99,,,-99.99,,2013-10-11 19:52:00,
2013-10-11 15:53:00,70.0,51.0,-100.00,SSE,155,0.0,0.0,50,-99.99,,,-99.99,,2013-10-11 20:53:00,
2013-10-11 16:22:00,70.0,51.0,-100.00,SSE,155,0.0,0.0,50,-99.99,,,-99.99,,2013-10-11 21:22:00,
2013-10-11 16:34:00,70.0,51.0,-100.00,SSE,155,0.0,0.0,50,-99.99,,,-99.99,,2013-10-11 21:34:00,
2013-10-11 16:43:00,70.0,51.0,-100.00,SSE,155,0.0,0.0,50,-99.99,,,-99.99,,2013-10-11 21:43:00,
2013-10-11 16:53:00,70.0,50.0,-100.00,SE,135,0.0,0.0,49,-99.99,,,-99.99,,2013-10-11 21:53:00,
2013-10-11 17:24:00,70.0,50.0,-100.00,SE,135,0.0,0.0,49,-99.99,,,-99.99,,2013-10-11 22:24:00,
2013-10-11 17:33:00,70.0,50.0,-100.00,SE,135,0.0,0.0,49,-99.99,,,-99.99,,2013-10-11 22:33:00,
2013-10-11 17:43:00,70.0,50.0,-100.00,SE,135,0.0,0.0,49,-99.99,,,-99.99,,2013-10-11 22:43:00,
2013-10-11 17:53:00,68.0,51.0,-100.00,SE,145,0.0,0.0,54,-99.99,,,-99.99,,2013-10-11 22:53:00,
2013-10-11 18:22:00,68.0,51.0,-100.00,SE,145,0.0,0.0,54,-99.99,,,-99.99,,2013-10-11 23:22:00,
2013-10-11 18:33:00,68.0,51.0,-100.00,SE,145,0.0,0.0,54,-99.99,,,-99.99,,2013-10-11 23:33:00,
2013-10-11 18:42:00,68.0,51.0,-100.00,SE,145,0.0,0.0,54,-99.99,,,-99.99,,2013-10-11 23:42:00,
2013-10-11 19:22:00,66.0,51.0,-100.00,SE,125,0.0,0.0,58,-99.99,,,-99.99,,2013-10-12 00:22:00,
2013-10-11 19:32:00,66.0,51.0,-100.00,SE,125,0.0,0.0,58,-99.99,,,-99.99,,2013-10-12 00:32:00,
2013-10-11 19:42:00,66.0,51.0,-100.00,SE,125,0.0,0.0,58,-99.99,,,-99.99,,2013-10-12 00:42:00,
2013-10-11 19:52:00,66.0,51.0,-100.00,SE,125,0.0,0.0,58,-99.99,,,-99.99,,2013-10-12 00:52:00,
2013-10-11 20:22:00,65.0,52.0,-100.00,SE,135,0.0,0.0,62,-99.99,,,-99.99,,2013-10-12 01:22:00,
2013-10-11 20:32:00,65.0,52.0,-100.00,SE,135,0.0,0.0,62,-99.99,,,-99.99,,2013-10-12 01:32:00,
2013-10-11 20:42:00,65.0,52.0,-100.00,SE,135,0.0,0.0,62,-99.99,,,-99.99,,2013-10-12 01:42:00,
2013-10-11 20:52:00,65.0,52.0,-100.00,SE,135,0.0,0.0,62,-99.99,,,-99.99,,2013-10-12 01:52:00,
2013-10-11 21:23:00,62.0,54.0,-100.00,SE,130,0.0,0.0,74,-99.99,,,-99.99,,2013-10-12 02:23:00,
2013-10-11 21:33:00,62.0,54.0,-100.00,SE,130,0.0,0.0,74,-99.99,,,-99.99,,2013-10-12 02:33:00,
2013-10-11 21:42:00,62.0,54.0,-100.00,SE,130,0.0,0.0,74,-99.99,,,-99.99,,2013-10-12 02:42:00,
2013-10-11 21:52:00,62.0,54.0,-100.00,SE,130,0.0,0.0,74,-99.99,,,-99.99,,2013-10-12 02:52:00,
2013-10-11 21:53:00,62.0,55.0,-100.00,SE,130,0.0,0.0,78,-99.99,,,-99.99,,2013-10-12 02:53:00,
2013-10-11 22:23:00,62.0,55.0,-100.00,SE,130,0.0,0.0,78,-99.99,,,-99.99,,2013-10-12 03:23:00,
2013-10-11 22:34:00,62.0,55.0,-100.00,SE,130,0.0,0.0,78,-99.99,,,-99.99,,2013-10-12 03:34:00,
2013-10-11 22:44:00,62.0,55.0,-100.00,SE,130,0.0,0.0,78,-99.99,,,-99.99,,2013-10-12 03:44:00,
2013-10-11 22:53:00,60.0,53.0,-100.00,SE,135,0.0,0.0,78,-99.99,,,-99.99,,2013-10-12 03:53:00,
2013-10-11 23:24:00,60.0,53.0,-100.00,SE,135,0.0,0.0,78,-99.99,,,-99.99,,2013-10-12 04:24:00,
2013-10-11 23:33:00,60.0,53.0,-100.00,SE,135,0.0,0.0,78,-99.99,,,-99.99,,2013-10-12 04:33:00,
2013-10-11 23:44:00,60.0,53.0,-100.00,SE,135,0.0,0.0,78,-99.99,,,-99.99,,2013-10-12 04:44:00,